Powrót do katalogu

METEOR 2-12 DEB

LostPO
NORAD 28603·DEBRIS·🇷🇺 Russia

Wystrzelony Feb 6, 1985 z Plesetsk Cosmodrome

Loading…

Następne Przeloty (najbliższe 24 godziny)

TLE

NieaktualneSource: Space-Track

Epoka: Sep 12, 2024, 16:28 UTC

1 28603U 85013C   24256.68646025  .00033190  00000-0  19405-1 0  9998
2 28603  82.5101  26.6591 0018482 317.1266  42.8466 14.08026209571089

Śledź METEOR 2-12 DEB w czasie rzeczywistym z AllMySat

Download on the App Store